Dewpoint
57 58 58 59 60 61 61 61 63 63 64 64 65 67 69 69 70 69 69 69 68 68 68 68 68 68 68 68 67 67 67 66 64 64 65 66 66 66 67 69 69 70 70
57 58 58 59 59 59 60 61 62 62 63 64 64 65 67 68 69 68 68 68 69 68 67 64 62 62 61 66 68 67 67 67 66 65 65 66 66 68 68 68 68 69 69
55 56 57 57 58 58 59 60 61 62 62 62 63 63 65 67 68 68 68 67 66 66 64 63 60 58 58 63 67 68 68 68 67 66 64 67 67 68 68 69 68 69 69
54 55 56 57 58 58 59 59 60 61 61 60 61 61 63 65 67 67 66 67 66 66 65 64 62 61 61 61 62 67 68 67 67 66 66 66 67 68 68 67 67 68 68
54 54 55 57 58 58 58 59 59 60 60 60 60 60 61 64 65 66 66 65 64 64 64 62 61 59 61 63 64 66 67 67 67 66 64 66 66 66 66 67 67 68 68
54 50 53 56 56 57 58 58 59 59 60 60 60 60 60 60 62 64 65 65 63 62 62 63 63 63 63 63 65 65 68 67 66 65 65 64 65 67 67 67 67 66 65
50 50 50 53 55 57 58 59 59 59 58 58 60 61 60 61 63 63 64 65 65 63 62 61 62 62 63 63 63 65 65 67 68 67 65 66 66 67 68 67 67 67 66
49 49 51 54 55 57 59 59 60 57 57 59 60 61 61 63 64 64 63 65 64 64 62 61 61 61 62 63 63 62 63 65 67 68 68 68 69 69 69 68 67 67 67
48 49 53 55 56 58 59 59 59 58 56 60 61 62 63 63 64 64 62 63 63 64 63 62 62 62 62 62 64 63 64 64 66 66 68 69 69 68 69 68 66 66 65
50 52 55 56 58 58 59 59 59 58 55 59 61 61 61 62 61 61 60 64 63 63 63 63 62 63 63 62 64 62 61 62 62 64 66 66 66 67 66 69 68 66 65
53 54 56 57 57 59 57 58 59 59 56 57 55 57 59 59 59 58 58 63 63 62 63 63 64 62 62 61 62 63 63 62 62 63 64 65 66 66 67 66 69 68 65
55 54 54 54 56 57 55 55 56 57 54 54 54 54 55 56 56 56 59 62 64 63 63 64 64 63 62 61 60 61 62 62 64 64 64 64 64 65 65 67 67 67 67
54 53 53 53 53 55 53 53 53 53 54 54 53 53 54 55 55 52 56 61 62 62 61 59 58 58 58 59 59 60 59 59 62 65 64 64 65 66 66 66 66 66 66
52 53 53 51 51 53 54 54 53 51 51 53 52 53 53 55 54 51 49 61 61 61 61 61 61 61 61 61 62 62 63 63 63 63 63 63 63 64 64 64 63 64 63
52 53 53 50 50 52 55 55 54 52 50 51 52 52 52 53 52 47 46 53 57 59 61 61 60 60 59 60 60 60 61 61 61 62 61 61 61 61 60 62 62 62 61
52 52 49 47 47 48 55 56 52 50 50 48 48 49 51 51 48 47 49 51 54 57 58 57 57 58 58 59 58 58 58 58 58 58 58 58 57 57 57 58 59 60 59
52 52 51 47 48 45 48 51 51 52 50 49 50 49 48 48 49 50 52 53 54 56 57 58 59 59 58 59 59 57 57 57 58 58 57 56 56 57 56 56 56 57 56
52 51 51 48 46 45 45 46 46 52 50 50 51 51 50 50 51 52 52 54 54 54 55 55 54 55 57 56 56 55 54 54 54 55 55 55 54 54 54 53 54 54 54
51 51 48 48 47 46 47 49 47 52 51 51 51 51 51 50 49 50 52 53 53 54 54 55 55 54 54 55 56 56 55 55 54 54 54 55 55 53 53 52 53 52 52
51 48 48 47 47 46 48 49 51 52 51 50 49 48 49 49 49 49 50 51 51 52 52 53 53 54 54 55 55 55 54 54 54 54 54 55 55 55 54 53 52 52 52
47 46 45 44 45 48 50 51 51 50 49 48 48 47 47 48 47 48 48 49 49 48 48 47 47 49 50 51 52 50 49 47 48 50 51 53 54 54 54 55 55 54 52
43 42 43 45 48 49 49 50 50 49 49 47 48 48 47 47 47 46 47 47 47 47 47 45 44 44 45 45 46 44 43 42 42 43 43 44 45 46 49 52 54 54 53
39 39 40 40 41 43 44 45 47 47 48 48 48 47 46 45 44 43 41 41 44 46 46 45 44 43 42 42 43 43 41 41 42 43 42 42 42 41 43 43 46 45 49
34 34 35 35 36 35 36 34 34 34 36 39 42 44 46 45 45 44 44 43 43 43 44 45 43 42 42 41 41 39 38 38 40 41 42 41 40 41 41 41 40 40 41
31 31 31 32 33 33 34 35 34 34 34 34 34 35 36 36 37 37 37 40 41 41 41 42 45 43 42 42 41 38 32 30 34 36 41 41 40 39 37 36 37 37 38
33 33 33 34 33 34 34 34 34 35 34 35 35 35 36 36 36 36 35 35 36 35 34 35 37 43 43 42 39 35 31 30 32 31 38 39 39 39 38 38 37 35 35
Wind_Speed
10 10 12 14 13 14 15 16 16 16 16 18 20 21 22 23 22 21 22 20 22 23 22 18 8 11 16 14 15 19 20 18 24 18 16 11 13 14 13 11 11 11 10
9 11 14 15 14 14 16 18 18 19 18 19 20 22 23 24 24 23 23 21 23 22 21 19 21 12 15 20 23 25 24 21 22 22 16 12 15 12 13 13 13 11 12
12 13 15 15 15 16 18 18 18 20 21 21 21 23 24 25 25 25 23 20 23 26 27 27 30 30 27 26 27 28 23 20 21 18 17 11 14 9 12 11 11 12 11
14 15 16 17 17 17 17 18 19 20 22 23 24 25 25 25 26 24 23 22 23 27 27 27 26 28 35 39 34 36 27 22 20 19 17 14 12 8 9 11 14 11 13
14 16 18 18 18 18 18 19 19 21 24 27 27 27 26 25 24 23 22 23 24 25 27 25 23 25 24 20 15 18 21 22 19 19 18 14 14 10 11 9 13 13 9
14 16 16 17 19 19 21 20 20 22 25 29 30 26 23 22 26 28 25 23 24 25 25 22 20 21 20 16 22 26 25 22 21 19 17 17 18 15 12 14 12 9 8
14 16 18 19 20 22 20 20 21 25 30 34 30 22 23 23 27 30 31 26 24 25 24 20 18 16 19 18 20 21 18 22 21 19 20 19 17 17 14 14 14 11 12
16 17 19 19 20 21 18 17 20 24 31 35 19 18 19 20 26 27 30 28 21 19 18 17 18 17 18 20 20 23 20 18 22 20 20 19 19 17 18 16 13 10 7
15 18 19 18 21 20 18 16 17 24 34 32 14 15 16 20 20 26 26 20 19 18 17 16 18 18 20 26 20 19 18 18 13 20 24 22 19 19 16 11 10 8 8
15 19 18 17 17 18 16 16 13 20 27 30 23 15 15 12 7 10 20 16 18 15 14 16 23 19 20 21 19 15 16 16 13 13 17 20 19 17 18 19 14 16 10
15 17 16 14 15 13 15 15 14 13 21 24 26 23 21 19 14 9 11 11 12 12 12 12 13 24 22 25 22 15 20 12 14 15 15 14 14 15 15 17 16 18 15
14 15 15 13 13 11 15 16 12 10 18 21 21 22 22 22 24 18 3 8 8 9 8 7 7 13 22 21 20 21 23 19 14 14 13 14 14 15 17 16 16 14 6
14 14 16 14 13 15 15 16 13 10 11 15 17 21 24 22 22 27 10 12 10 8 8 9 10 9 6 2 4 9 12 13 15 15 13 10 9 11 10 9 9 8 8
12 17 18 17 18 15 14 11 11 13 14 14 14 16 21 21 21 18 18 10 14 14 12 14 14 14 14 11 7 6 6 5 3 7 9 10 10 9 12 7 5 6 4
10 14 16 14 14 8 7 12 10 4 5 9 10 10 14 21 18 18 15 15 16 14 14 15 16 15 16 21 22 19 14 14 11 8 9 8 10 11 6 5 10 9 6
9 11 12 11 12 8 8 12 2 5 5 7 7 8 5 8 18 14 8 9 14 13 13 14 13 11 12 16 18 14 13 17 14 15 14 13 14 12 11 6 5 8 10
10 11 11 9 7 8 7 7 10 5 4 9 17 18 15 12 17 17 14 18 18 11 10 9 9 9 9 9 10 9 9 9 5 11 5 7 9 9 10 8 5 6 7
9 10 8 5 1 3 4 5 4 4 6 10 11 18 19 23 27 27 16 18 16 16 14 14 13 11 9 8 8 9 9 8 10 8 6 6 8 8 7 6 5 5 5
3 3 4 1 2 3 6 6 5 7 10 12 11 12 15 14 20 27 26 20 14 16 13 14 12 12 11 9 8 8 10 10 9 9 8 6 6 5 5 3 4 2 4
3 2 2 2 3 4 6 8 10 12 14 12 14 13 13 14 23 19 19 16 17 17 15 14 13 12 11 10 9 9 10 11 9 9 7 6 6 4 3 1 0 2 1
4 4 6 6 6 6 8 10 11 14 14 13 14 13 15 17 15 15 15 16 15 15 14 14 14 13 12 12 10 11 11 11 11 10 10 10 10 7 7 5 4 4 3
7 8 9 8 9 11 11 11 12 12 12 13 11 13 16 14 13 13 13 13 12 11 11 11 12 12 12 12 12 13 12 13 13 12 13 13 13 12 10 9 8 6 5
11 13 12 11 11 13 14 13 12 12 12 11 11 12 12 12 11 11 11 11 11 11 11 10 9 9 9 10 10 10 11 10 8 8 9 9 9 10 10 10 9 9 7
15 14 14 12 13 14 14 13 12 15 13 12 10 10 10 10 10 10 10 9 9 10 10 9 8 7 6 7 7 8 7 6 6 7 8 8 9 9 9 9 9 10 10
14 15 15 14 13 13 13 14 14 13 12 12 11 10 9 10 10 11 11 11 10 10 11 11 8 6 5 6 6 6 6 7 8 7 6 7 7 7 7 7 7 8 9
16 15 14 13 12 12 12 12 12 10 10 8 8 7 7 7 7 7 8 9 9 9 11 11 11 10 6 4 4 3 4 5 5 7 5 6 6 6 7 8 9 8 9
Wind_Direction
320 314 323 322 314 310 309 300 290 285 279 280 279 271 259 253 245 228 225 223 214 219 216 209 192 237 238 234 231 232 225 219 238 257 257 238 235 237 248 240 252 257 260
300 320 316 311 309 304 295 290 291 289 286 274 275 272 263 253 245 235 226 213 214 212 195 185 193 196 237 248 237 235 225 219 227 242 249 228 228 226 243 247 250 247 257
328 319 313 310 303 299 296 297 295 291 292 288 278 271 268 259 247 232 225 222 193 199 193 196 209 217 214 216 228 222 219 217 222 231 241 223 236 224 238 250 251 255 252
321 317 311 306 301 297 294 293 291 289 287 285 281 273 264 262 253 240 221 210 196 211 212 216 215 209 215 221 208 214 201 204 215 224 238 234 229 224 215 239 253 246 256
310 314 307 303 297 293 289 285 287 290 286 282 284 274 264 259 257 244 221 209 206 209 217 221 219 221 221 241 245 227 210 197 204 219 230 229 229 222 221 224 240 254 259
305 309 305 301 301 295 291 292 295 299 296 290 280 267 256 254 254 244 219 214 208 213 224 229 219 215 217 221 226 226 212 204 207 210 218 222 231 227 227 225 230 243 263
312 309 313 311 306 301 301 303 301 309 307 298 280 261 249 255 254 245 221 219 217 221 221 216 212 215 209 207 221 235 234 225 214 212 223 221 226 218 221 222 222 222 232
310 315 320 321 313 307 309 308 312 319 322 311 268 259 254 259 259 239 222 218 218 217 215 212 210 208 201 202 205 218 227 229 228 228 226 225 221 216 210 227 219 219 238
309 323 324 318 314 308 311 315 317 338 344 335 294 286 277 270 255 236 218 208 216 217 210 212 214 209 210 212 206 211 220 221 217 230 233 233 222 213 203 197 218 208 242
327 319 316 314 314 307 316 313 319 353 344 348 349 0 345 325 344 281 222 205 209 207 199 208 214 210 203 207 208 202 231 238 222 230 231 235 238 237 217 211 214 216 211
311 312 314 311 318 318 332 332 324 334 349 4 354 4 9 2 350 328 212 206 215 204 210 219 220 217 215 217 211 208 224 211 227 228 229 225 217 223 227 214 218 215 208
307 309 309 313 313 337 350 351 348 0 18 358 352 2 12 5 10 358 251 212 193 198 190 197 200 210 217 221 220 233 232 234 236 225 226 231 220 218 222 204 201 195 187
309 312 317 316 346 358 351 353 354 3 11 15 0 2 358 354 6 2 20 93 88 92 102 111 95 80 80 91 233 253 250 233 234 232 218 206 200 195 163 163 176 178 188
308 306 321 334 345 353 348 343 356 6 7 18 7 6 358 3 350 356 3 61 78 83 81 77 82 89 77 43 11 54 74 78 164 202 174 141 129 131 140 135 143 178 202
299 305 300 321 328 345 308 312 342 1 7 5 3 9 8 350 348 334 330 23 52 61 77 72 70 66 67 72 51 23 39 45 47 63 77 88 104 104 100 148 159 166 177
291 298 298 321 312 346 332 321 266 351 21 34 12 12 10 320 331 331 18 42 55 59 70 77 75 75 78 84 77 72 49 44 52 48 53 81 85 78 82 57 70 111 115
267 288 298 312 322 5 353 335 4 327 291 47 29 32 40 4 16 31 36 51 51 56 59 45 56 67 76 85 106 100 83 87 66 79 78 84 102 104 108 108 107 99 111
287 282 288 302 336 350 339 357 38 38 42 37 44 45 35 35 40 40 38 57 44 39 54 53 52 45 47 61 71 69 71 71 72 58 59 65 81 88 93 100 95 112 124
262 275 341 233 147 46 21 43 71 73 64 53 41 41 24 28 46 46 48 53 41 36 33 43 39 41 40 45 55 67 65 55 49 51 44 30 41 62 67 58 99 120 137
167 342 29 22 38 39 54 80 91 89 75 55 55 38 26 48 45 38 40 43 46 46 38 37 33 37 40 39 43 53 54 47 42 43 35 18 3 2 17 341 264 244 239
102 63 83 62 51 58 76 81 91 95 84 71 64 49 54 63 54 50 48 45 44 44 44 43 37 33 36 43 63 66 64 53 45 39 38 30 36 36 6 339 286 258 267
111 100 87 89 87 82 74 77 81 78 79 84 74 57 58 63 57 51 48 46 45 46 44 51 52 50 44 45 48 55 52 53 44 38 34 32 27 25 25 22 5 4 355
115 108 100 91 82 76 74 70 70 72 74 71 64 61 55 55 54 50 45 35 31 31 30 36 43 48 48 53 56 59 63 56 41 29 35 28 28 19 13 13 4 348 347
108 101 97 82 78 78 80 79 72 66 66 66 64 57 52 48 45 38 30 21 20 19 18 22 28 35 40 46 49 47 42 25 20 22 22 21 18 10 2 353 345 337 333
97 91 87 89 89 90 85 77 73 70 63 55 51 46 39 39 41 38 32 29 27 24 17 11 2 4 19 25 27 27 20 24 28 12 12 9 4 0 359 349 346 337 336
90 92 97 98 92 89 89 83 74 67 62 54 50 45 41 39 35 32 29 27 18 11 5 0 358 352 331 333 342 348 360 17 22 22 10 358 346 335 332 321 320 316 315